VK2HIM-1 Weather Reports


time (UTC)temp
C
wind
direction
speed
KPH
gust
KPH
rain 1hr
cm
rain 24hr
cm
rain mn
cm
humidity
%
barometer
mb
20260504110349 16 235 3.2 4.8 0.00 0.00 0.00 92 1016.3
20260504100349 18 223 1.6 3.2 0.00 0.00 0.00 84 1015.4
20260504080348 19 51 16.1 24.1 0.00 0.00 0.00 84 1013.3
20260504070348 20 53 14.5 19.3 0.00 0.00 0.00 83 1012.8
20260504050348 19 51 11.3 19.3 0.00 0.00 0.00 84 1012.5
20260504043348 19 48 12.9 22.5 0.00 0.00 0.00 85 1012.8
20260504040347 19 35 12.9 32.2 0.00 0.00 0.00 87 1012.8
20260504033347 19 41 16.1 32.2 0.00 0.00 0.00 86 1013.2
20260504030349 18 44 8.0 14.5 0.00 0.00 0.00 88 1013.9
20260504023346 18 34 12.9 19.3 0.00 0.00 0.00 88 1014.0
20260504020346 18 43 16.1 27.4 0.00 0.00 0.00 90 1014.3
20260504013346 17 47 12.9 19.3 0.00 0.00 0.00 91 1015.0
20260504010346 17 27 3.2 4.8 0.00 0.00 0.00 92 1016.1
20260504003346 18 28 11.3 19.3 0.00 0.00 0.00 88 1016.4
20260504000346 18 1 9.7 12.9 0.00 0.00 0.00 85 1016.0
20260503233349 18 67 8.0 16.1 0.00 0.00 0.00 88 1016.0
20260503230349 18 101 4.8 9.7 0.00 0.00 0.00 89 1016.2
20260503223349 19 75 3.2 4.8 0.00 0.00 0.00 85 1016.4
20260503220349 19 37 12.9 16.1 0.00 0.00 0.00 85 1015.9
20260503213349 20 30 11.3 19.3 0.00 0.00 0.00 82 1015.4
20260503210349 19 31 11.3 16.1 0.00 0.00 0.00 83 1015.1
20260503203349 19 54 8.0 11.3 0.00 0.00 0.00 83 1015.1
20260503200349 19 40 4.8 9.7 0.00 0.00 0.00 83 1015.0
20260503193349 19 56 8.0 14.5 0.00 0.00 0.00 85 1015.1
20260503190349 19 54 9.7 11.3 0.00 0.00 0.00 85 1015.3
20260503183348 19 26 1.6 3.2 0.00 0.00 0.00 84 1015.5
20260503180348 19 332 4.8 8.0 0.00 0.00 0.00 82 1015.5
20260503173345 18 83 0.0 0.0 0.00 0.00 0.00 84 1015.5
20260503170350 19 35 8.0 19.3 0.00 0.00 0.00 84 1015.2
20260503150350 19 8 8.0 12.9 0.00 0.00 0.00 86 1016.1
20260503130349 20 312 11.3 19.3 0.00 0.00 0.00 81 1016.6